EW0139 Weather Reports


time (UTC)temp
C
wind
direction
speed
KPH
gust
KPH
rain 1hr
cm
rain 24hr
cm
rain mn
cm
humidity
%
barometer
mb
20260509230819 18 281 16.1 27.4 0.00 0.00 0.00 36 1015.4
20260509225758 17 299 9.7 20.9 0.00 0.00 0.00 37 1015.3
20260509224742 18 302 11.3 30.6 0.00 0.00 0.00 35 1015.3
20260509223746 17 294 14.5 22.5 0.00 0.00 0.00 36 1015.3
20260509222806 18 313 8.0 27.4 0.00 0.00 0.00 35 1015.3
20260509221743 17 296 6.4 16.1 0.00 0.00 0.00 35 1015.3
20260509220747 17 287 6.4 19.3 0.00 0.00 0.00 37 1015.3
20260509215752 18 304 16.1 30.6 0.00 0.00 0.00 34 1015.4
20260509214752 17 302 9.7 20.9 0.00 0.00 0.00 34 1015.3
20260509213813 17 313 11.3 19.3 0.00 0.00 0.00 36 1015.6
20260509212751 17 278 16.1 22.5 0.00 0.00 0.00 36 1015.7
20260509211748 17 263 11.3 17.7 0.00 0.00 0.00 37 1015.7
20260509210748 17 277 12.9 20.9 0.00 0.00 0.00 35 1015.8
20260509205756 17 262 17.7 37.0 0.00 0.00 0.00 37 1015.7
20260509204758 17 277 9.7 29.0 0.00 0.00 0.00 36 1015.7
20260509203756 17 321 8.0 27.4 0.00 0.00 0.00 36 1015.6
20260509202741 17 322 16.1 25.7 0.00 0.00 0.00 35 1015.5
20260509201744 17 271 14.5 20.9 0.00 0.00 0.00 35 1015.6
20260509200745 16 262 11.3 20.9 0.00 0.00 0.00 35 1015.7
20260509195746 16 282 3.2 17.7 0.00 0.00 0.00 37 1015.5
20260509194749 16 228 9.7 22.5 0.00 0.00 0.00 36 1015.7
20260509193750 16 315 6.4 11.3 0.00 0.00 0.00 38 1015.6
20260509192756 16 240 4.8 16.1 0.00 0.00 0.00 40 1015.7
20260509191758 16 354 6.4 19.3 0.00 0.00 0.00 36 1015.7
20260509190820 16 143 1.6 16.1 0.00 0.00 0.00 39 1015.8
20260509185741 15 293 6.4 19.3 0.00 0.00 0.00 42 1015.8
20260509184743 16 161 9.7 9.7 0.00 0.00 0.00 40 1015.8
20260509183807 15 151 3.2 9.7 0.00 0.00 0.00 42 1015.7
20260509182748 15 250 8.0 16.1 0.00 0.00 0.00 40 1015.9
20260509181808 15 75 1.6 16.1 0.00 0.00 0.00 43 1015.8
20260509180746 15 127 9.7 11.3 0.00 0.00 0.00 41 1015.8
20260509175745 14 352 8.0 11.3 0.00 0.00 0.00 41 1015.8
20260509174750 14 201 4.8 16.1 0.00 0.00 0.00 42 1015.8
20260509173750 14 174 9.7 16.1 0.00 0.00 0.00 43 1015.8
20260509172752 14 118 12.9 19.3 0.00 0.00 0.00 42 1015.8
20260509171753 13 221 0.0 6.4 0.00 0.00 0.00 43 1015.7
20260509170757 13 135 1.6 14.5 0.00 0.00 0.00 43 1015.8
20260509165757 13 105 9.7 11.3 0.00 0.00 0.00 43 1015.7
20260509164818 13 156 8.0 14.5 0.00 0.00 0.00 43 1015.8
20260509163758 13 65 6.4 11.3 0.00 0.00 0.00 42 1015.8
20260509162742 13 100 3.2 11.3 0.00 0.00 0.00 45 1015.8
20260509161744 12 106 9.7 9.7 0.00 0.00 0.00 45 1015.8
20260509160744 12 67 0.0 9.7 0.00 0.00 0.00 47 1015.7
20260509155748 12 60 3.2 12.9 0.00 0.00 0.00 46 1015.7
20260509154749 12 82 3.2 9.7 0.00 0.00 0.00 47 1015.6
20260509153753 11 128 4.8 14.5 0.00 0.00 0.00 48 1015.5
20260509152756 11 90 9.7 16.1 0.00 0.00 0.00 48 1015.4
20260509151738 10 96 8.0 17.7 0.00 0.00 0.00 51 1015.4
20260509150740 10 107 4.8 11.3 0.00 0.00 0.00 53 1015.6
20260509145749 10 90 6.4 16.1 0.00 0.00 0.00 55 1015.5
20260509144747 10 90 6.4 17.7 0.00 0.00 0.00 54 1015.5
20260509143747 9 92 8.0 17.7 0.00 0.00 0.00 55 1015.4
20260509142748 9 105 8.0 16.1 0.00 0.00 0.00 56 1015.4
20260509141754 8 91 14.5 16.1 0.00 0.00 0.00 56 1015.2
20260509140754 8 96 11.3 16.1 0.00 0.00 0.00 57 1015.3
20260509135755 8 89 14.5 17.7 0.00 0.00 0.00 56 1015.2
20260509134755 8 88 6.4 16.1 0.00 0.00 0.00 58 1015.0
20260509133754 7 36 3.2 11.3 0.00 0.00 0.00 61 1015.0
20260509132800 7 36 3.2 8.0 0.00 0.00 0.00 65 1015.0
20260509131740 6 36 0.0 8.0 0.00 0.00 0.00 68 1015.0
20260509130741 6 36 4.8 9.7 0.00 0.00 0.00 67 1014.9
20260509125741 5 33 3.2 9.7 0.00 0.00 0.00 69 1014.8
20260509124745 4 5 0.0 8.0 0.00 0.00 0.00 71 1014.8
20260509123805 3 5 0.0 3.2 0.00 0.00 0.00 73 1014.7
20260509122744 3 5 0.0 1.6 0.00 0.00 0.00 74 1014.6
20260509121744 3 5 0.0 0.0 0.00 0.00 0.00 74 1014.4
20260509120745 3 5 0.0 0.0 0.00 0.00 0.00 74 1014.2
20260509115748 3 5 0.0 1.6 0.00 0.00 0.00 73 1014.1
20260509114751 3 5 0.0 6.4 0.00 0.00 0.00 72 1013.8
20260509113750 3 5 0.0 4.8 0.00 0.00 0.00 73 1013.8
20260509112751 3 4 1.6 9.7 0.00 0.00 0.00 72 1013.5
20260509111755 3 11 4.8 6.4 0.00 0.00 0.00 72 1013.5
20260509110756 3 11 1.6 4.8 0.00 0.00 0.00 72 1013.2
20260509105759 3 10 0.0 4.8 0.00 0.00 0.00 71 1013.2
20260509104740 4 11 1.6 6.4 0.00 0.00 0.00 71 1013.2
20260509103746 4 11 3.2 6.4 0.00 0.00 0.00 71 1012.9
20260509102806 4 11 4.8 8.0 0.00 0.00 0.00 73 1012.8
20260509101745 4 10 3.2 6.4 0.00 0.00 0.00 72 1012.7
20260509100806 4 11 3.2 8.0 0.00 0.00 0.00 72 1012.5
20260509095745 4 14 3.2 6.4 0.00 0.00 0.00 73 1012.3
20260509094749 5 28 3.2 9.7 0.00 0.00 0.00 72 1012.1
20260509093814 5 355 3.2 12.9 0.00 0.00 0.00 73 1012.0
20260509092755 5 19 4.8 6.4 0.00 0.00 0.00 72 1011.8
20260509091755 6 20 4.8 6.4 0.00 0.00 0.00 71 1011.8
20260509090758 6 19 3.2 6.4 0.00 0.00 0.00 70 1011.5
20260509085746 6 19 4.8 6.4 0.00 0.00 0.00 70 1011.3
20260509084748 6 19 0.0 3.2 0.00 0.00 0.00 68 1011.1
20260509083809 6 19 3.2 6.4 0.00 0.00 0.00 67 1010.8
20260509082750 7 19 1.6 9.7 0.00 0.00 0.00 66 1010.7
20260509081755 7 9 3.2 6.4 0.00 0.00 0.00 67 1010.5
20260509080755 7 5 3.2 9.7 0.00 0.00 0.00 67 1010.5
20260509075755 7 5 4.8 8.0 0.00 0.00 0.00 67 1010.4
20260509074820 7 6 3.2 6.4 0.00 0.00 0.00 67 1010.3
20260509073820 7 36 3.2 11.3 0.00 0.00 0.00 66 1010.1
20260509072742 7 342 1.6 8.0 0.00 0.00 0.00 67 1010.0
20260509071742 7 340 4.8 9.7 0.00 0.00 0.00 67 1010.0
20260509070802 8 339 6.4 9.7 0.00 0.00 0.00 66 1009.8
20260509065745 8 345 6.4 11.3 0.00 0.00 0.00 64 1009.6
20260509064745 9 352 8.0 11.3 0.00 0.00 0.00 62 1009.7
20260509063749 10 15 3.2 6.4 0.00 0.00 0.00 61 1009.5
20260509062753 9 15 4.8 8.0 0.00 0.00 0.00 63 1009.3
20260509061754 8 15 3.2 4.8 0.00 0.00 0.00 65 1009.2
20260509060754 9 15 0.0 0.0 0.00 0.00 0.00 63 1009.1
20260509055758 9 15 0.0 0.0 0.00 0.00 0.00 63 1008.9
20260509054758 10 15 0.0 0.0 0.00 0.00 0.00 61 1009.0
20260509053759 10 15 0.0 0.0 0.00 0.00 0.00 60 1008.8
20260509052758 10 15 0.0 4.8 0.00 0.00 0.00 60 1008.7
20260509051818 10 15 3.2 3.2 0.00 0.00 0.00 60 1008.5
20260509050739 11 15 3.2 3.2 0.00 0.00 0.00 58 1008.3
20260509045804 11 15 1.6 4.8 0.00 0.00 0.00 56 1008.2
20260509044743 11 15 0.0 6.4 0.00 0.00 0.00 55 1008.1
20260509043746 12 15 0.0 4.8 0.00 0.00 0.00 54 1008.0
20260509042808 12 15 0.0 9.7 0.00 0.00 0.00 53 1008.0
20260509041752 13 32 4.8 11.3 0.00 0.00 0.00 51 1007.7
20260509040753 13 45 6.4 14.5 0.00 0.00 0.00 52 1007.4
20260509035752 13 60 1.6 11.3 0.00 0.00 0.00 51 1007.2
20260509034757 13 48 8.0 11.3 0.00 0.00 0.00 50 1006.9
20260509033743 14 21 3.2 11.3 0.00 0.00 0.00 49 1006.6
20260509032746 15 47 4.8 16.1 0.00 0.00 0.00 48 1006.4
20260509031749 15 25 4.8 16.1 0.00 0.00 0.00 47 1006.3
20260509030751 15 358 4.8 16.1 0.00 0.00 0.00 46 1006.0
20260509025754 15 18 4.8 17.7 0.00 0.00 0.00 46 1005.7
20260509024758 15 35 8.0 20.9 0.00 0.00 0.00 45 1005.6
20260509023756 15 46 3.2 25.7 0.00 0.00 0.00 44 1005.5
20260509022740 16 15 3.2 14.5 0.00 0.00 0.00 45 1005.2
20260509021742 16 17 4.8 11.3 0.00 0.00 0.00 45 1005.0
20260509020746 16 20 3.2 16.1 0.00 0.00 0.00 44 1004.8
20260509015747 16 319 11.3 16.1 0.00 0.00 0.00 43 1004.7
20260509014749 17 10 11.3 22.5 0.00 0.05 0.00 43 1004.8
20260509013749 17 348 11.3 27.4 0.00 0.05 0.00 42 1004.8
20260509012753 18 7 14.5 29.0 0.00 0.05 0.00 40 1004.7
20260509011757 17 357 17.7 32.2 0.00 0.05 0.00 40 1004.8
20260509010758 18 355 16.1 35.4 0.00 0.05 0.00 38 1004.4
20260509005820 20 301 24.1 48.3 0.00 0.05 0.00 35 1004.6
20260509004743 21 284 27.4 32.2 0.00 0.05 0.00 30 1005.0
20260509003743 21 315 9.7 37.0 0.00 0.05 0.00 31 1004.5
20260509002744 21 314 17.7 38.6 0.00 0.05 0.00 28 1004.4
20260509001742 22 255 14.5 37.0 0.00 0.05 0.00 27 1004.1
20260509000747 22 261 19.3 32.2 0.00 0.05 0.00 27 1004.3
20260508235751 22 279 25.7 37.0 0.00 0.05 0.00 27 1004.3
20260508234752 22 226 20.9 35.4 0.00 0.05 0.00 26 1004.3
20260508233752 22 278 20.9 33.8 0.00 0.05 0.00 26 1004.0
20260508232752 22 294 35.4 35.4 0.00 0.05 0.00 26 1004.1
20260508231740 22 287 16.1 19.3 0.00 0.05 0.00 26 1004.3